Location: Cahas Mountain Overlook
(37.0833°N, 80.1000°W)
Time: 11:34:42
(UTC-04:00)

A-11 Canister half - Pass Details

Date: 10 February 2026
Orbit: 1524 x 1683 km, 47.3° (Epoch: 16 March)

Event Time Altitude Azimuth Distance (km) Brightness Sun altitude
Rises 18:46:20 0° 240° (WSW) 4,696 13.1 -10.7°
Reaches altitude 10° 18:49:24 10° 242° (WSW) 3,702 12.3 -11.3°
Maximum altitude 18:58:44 80° 329° (NNW) 1,547 9.0 -13.2°
Enters shadow 19:07:04 14° 56° (ENE) 3,383 10.3 -14.8°
